This is the latest recevied weather packets stored in our database for station/object WMKJ. If no packets are shown the sender has not sent any weather packets the latest 10 day(s).
| Time | Temp. | Humidity | Pressure | Rain* | Wind** | Luminosity | Snow |
|---|---|---|---|---|---|---|---|
| 1777979430 | 25.56° C | 88% | 1007 hPa | - | - | - | - |
| 1777975831 | 25° C | 88% | 1006 hPa | - | - | - | - |
| 1777972235 | 26.67° C | 83% | 1006 hPa | - | - | - | - |
| 1777968627 | 35° C | 53% | 1005 hPa | - | - | - | - |
| 1777965025 | 33.89° C | 59% | 1006 hPa | - | - | - | - |
| 1777961430 | 33.89° C | 56% | 1007 hPa | - | - | - | - |
| 1777957835 | 32.78° C | 59% | 1008 hPa | - | - | - | - |
| 1777954226 | 32.78° C | 59% | 1009 hPa | - | - | - | - |
| 1777943426 | 26.67° C | 83% | 1010 hPa | - | - | - | - |
| 1777939837 | 25° C | 88% | 1009 hPa | - | - | - | - |
| 1777929026 | 23.89° C | 88% | 1008 hPa | - | - | - | - |
| 1777921836 | 23.89° C | 94% | 1008 hPa | - | - | - | - |
| 1777918232 | 23.89° C | 94% | 1009 hPa | - | - | - | - |
| 1777896627 | 25.56° C | 88% | 1008 hPa | - | - | - | - |
| 1777893033 | 26.67° C | 83% | 1008 hPa | - | - | - | - |
| 1777889427 | 27.78° C | 83% | 1007 hPa | - | - | - | - |
| 1777885825 | 27.78° C | 78% | 1007 hPa | - | - | - | - |
| 1777882225 | 27.78° C | 78% | 1007 hPa | - | - | - | - |
| 1777878632 | 27.78° C | 74% | 1008 hPa | - | - | - | - |
| 1777877396 | 27.78° C | 78% | 1008 hPa | - | - | - | - |
| 1777875025 | 32.78° C | 62% | 1009 hPa | - | - | - | - |
| 1777871424 | 32.78° C | 62% | 1010 hPa | - | - | - | - |
| 1777867824 | 31.67° C | 62% | 1010 hPa | - | - | - | - |
| 1777842626 | 23.89° C | 88% | 1008 hPa | - | - | - | - |
| 1777839024 | 23.89° C | 88% | 1008 hPa | - | - | - | - |
* Rain since midnight (hover to see other rain measurements)
** Current wind speed in m/s (hover to see current wind gust speed)